Total_Precipitation_Accumulation
0.23 0.27 0.36 0.49 0.43 0.30 0.18 0.07 0.04 0.06 0.07 0.05 0.05 0.05 0.07 0.10 0.15 0.22 0.21 0.18 0.13 0.13 0.22 0.34 0.40 0.41 0.41 0.37 0.28 0.21 0.22 0.25 0.30 0.35 0.34 0.34 0.32 0.25 0.25 0.29 0.33 0.36 0.41 0.39 0.35 0.24 0.18 0.14 0.10
0.22 0.36 0.56 0.64 0.44 0.25 0.12 0.07 0.06 0.07 0.08 0.07 0.07 0.08 0.10 0.14 0.15 0.16 0.24 0.28 0.21 0.20 0.29 0.35 0.44 0.46 0.43 0.41 0.33 0.27 0.25 0.30 0.35 0.37 0.39 0.39 0.35 0.27 0.29 0.33 0.33 0.34 0.34 0.26 0.20 0.16 0.14 0.09 0.07
0.29 0.49 0.77 0.67 0.42 0.25 0.12 0.07 0.07 0.07 0.08 0.10 0.13 0.14 0.19 0.23 0.19 0.23 0.29 0.35 0.37 0.32 0.35 0.43 0.52 0.54 0.52 0.46 0.41 0.35 0.32 0.37 0.42 0.43 0.45 0.42 0.41 0.37 0.37 0.34 0.31 0.28 0.24 0.19 0.15 0.12 0.11 0.08 0.07
0.45 0.76 0.88 0.65 0.35 0.17 0.12 0.09 0.08 0.10 0.10 0.11 0.18 0.26 0.32 0.28 0.24 0.28 0.36 0.40 0.48 0.50 0.51 0.61 0.69 0.70 0.62 0.55 0.49 0.44 0.41 0.42 0.45 0.48 0.49 0.48 0.49 0.48 0.44 0.36 0.27 0.21 0.17 0.14 0.13 0.09 0.08 0.08 0.07
0.70 0.98 0.87 0.57 0.29 0.15 0.10 0.10 0.11 0.12 0.12 0.13 0.21 0.35 0.45 0.38 0.35 0.42 0.45 0.48 0.59 0.60 0.64 0.75 0.86 0.88 0.74 0.63 0.57 0.55 0.56 0.56 0.53 0.51 0.55 0.59 0.56 0.53 0.47 0.35 0.23 0.17 0.13 0.12 0.12 0.11 0.08 0.09 0.08
1.00 1.01 0.81 0.51 0.25 0.15 0.11 0.12 0.14 0.15 0.15 0.17 0.25 0.42 0.56 0.57 0.60 0.66 0.64 0.61 0.71 0.69 0.72 0.80 0.93 0.92 0.83 0.78 0.68 0.63 0.66 0.65 0.62 0.59 0.64 0.71 0.66 0.53 0.46 0.36 0.25 0.19 0.16 0.14 0.13 0.13 0.12 0.11 0.11
1.05 0.87 0.63 0.39 0.24 0.19 0.14 0.12 0.16 0.18 0.20 0.23 0.25 0.50 0.68 0.82 0.91 0.95 0.95 0.91 0.89 0.90 0.94 0.97 0.97 0.92 0.86 0.78 0.72 0.66 0.70 0.70 0.64 0.63 0.65 0.67 0.66 0.54 0.46 0.33 0.27 0.22 0.20 0.18 0.16 0.15 0.13 0.13 0.12
1.05 1.01 0.60 0.37 0.28 0.22 0.18 0.18 0.16 0.20 0.24 0.27 0.33 0.55 0.76 0.92 1.12 1.30 1.27 1.36 1.28 1.23 1.19 1.13 1.15 1.07 0.94 0.83 0.79 0.72 0.68 0.65 0.62 0.60 0.52 0.49 0.47 0.45 0.44 0.31 0.27 0.25 0.24 0.21 0.18 0.16 0.15 0.13 0.09
1.11 1.17 0.68 0.35 0.30 0.26 0.25 0.27 0.22 0.20 0.29 0.39 0.41 0.51 0.75 1.02 1.34 1.64 1.63 1.69 1.67 1.53 1.47 1.32 1.30 1.29 1.19 1.06 0.92 0.87 0.79 0.71 0.64 0.56 0.47 0.47 0.52 0.48 0.40 0.25 0.23 0.24 0.23 0.20 0.18 0.17 0.16 0.11 0.07
1.20 1.01 0.53 0.27 0.27 0.30 0.31 0.35 0.33 0.31 0.37 0.46 0.57 0.63 0.94 1.33 1.61 1.78 1.80 1.68 1.72 1.67 1.63 1.49 1.37 1.39 1.39 1.17 1.05 1.03 0.92 0.79 0.70 0.59 0.53 0.50 0.53 0.52 0.42 0.33 0.25 0.26 0.23 0.20 0.20 0.19 0.17 0.13 0.08
0.96 0.66 0.43 0.33 0.32 0.37 0.40 0.42 0.43 0.44 0.46 0.47 0.54 0.65 0.99 1.44 1.81 1.85 1.96 1.85 1.78 1.84 1.83 1.68 1.50 1.42 1.45 1.40 1.17 1.09 0.96 0.88 0.81 0.69 0.63 0.58 0.60 0.59 0.53 0.48 0.37 0.34 0.28 0.26 0.25 0.24 0.18 0.15 0.14
0.79 0.53 0.49 0.48 0.43 0.48 0.49 0.48 0.46 0.47 0.46 0.46 0.57 0.67 0.95 1.31 1.64 1.87 1.97 2.01 1.78 1.79 1.91 1.79 1.61 1.48 1.44 1.42 1.34 1.16 1.04 0.93 0.83 0.73 0.61 0.63 0.65 0.60 0.53 0.47 0.40 0.36 0.30 0.28 0.28 0.25 0.20 0.17 0.14
0.70 0.54 0.54 0.56 0.54 0.56 0.59 0.54 0.51 0.46 0.45 0.53 0.73 0.92 1.05 1.23 1.43 1.77 1.97 2.01 1.86 1.71 1.85 1.90 1.76 1.59 1.44 1.40 1.40 1.28 1.04 0.90 0.89 0.84 0.72 0.61 0.57 0.54 0.51 0.44 0.42 0.39 0.35 0.34 0.31 0.27 0.23 0.20 0.17
0.59 0.55 0.60 0.66 0.67 0.65 0.72 0.62 0.60 0.53 0.53 0.69 0.86 1.01 1.18 1.31 1.43 1.70 1.86 1.97 1.80 1.64 1.73 1.86 1.93 1.86 1.64 1.42 1.34 1.31 1.17 1.01 0.96 0.92 0.80 0.75 0.65 0.56 0.51 0.44 0.41 0.38 0.34 0.31 0.32 0.30 0.27 0.24 0.20
0.67 0.72 0.77 0.80 0.78 0.76 0.84 0.83 0.63 0.57 0.66 0.73 0.81 0.96 1.15 1.34 1.57 1.71 1.71 1.89 1.92 1.72 1.66 1.76 1.90 2.02 1.91 1.67 1.46 1.39 1.25 1.11 1.01 0.95 0.96 0.90 0.81 0.68 0.60 0.52 0.43 0.38 0.39 0.36 0.34 0.36 0.30 0.23 0.19
1.06 1.01 0.94 0.81 0.78 0.78 0.98 0.97 0.64 0.58 0.69 0.72 0.75 0.91 1.08 1.26 1.48 1.63 1.65 1.80 1.99 1.95 1.81 1.81 1.80 1.95 2.03 1.90 1.68 1.52 1.38 1.21 1.06 0.95 0.98 1.02 0.94 0.85 0.77 0.71 0.61 0.54 0.51 0.51 0.43 0.37 0.36 0.27 0.22
1.14 0.93 0.74 0.70 0.72 0.79 0.90 0.82 0.68 0.59 0.61 0.68 0.72 0.83 1.03 1.15 1.27 1.42 1.53 1.68 1.90 2.01 1.99 1.95 1.83 1.79 1.93 2.02 1.93 1.73 1.51 1.31 1.17 0.99 0.92 0.99 1.02 0.96 0.88 0.79 0.79 0.78 0.68 0.58 0.53 0.42 0.40 0.36 0.28
0.69 0.55 0.49 0.54 0.57 0.62 0.68 0.63 0.66 0.65 0.62 0.59 0.61 0.69 0.90 1.04 1.08 1.15 1.31 1.57 1.79 1.98 1.96 1.96 1.90 1.85 1.92 2.06 2.11 1.99 1.77 1.53 1.32 1.16 1.02 0.98 1.03 1.05 1.01 0.92 0.89 0.90 0.87 0.77 0.66 0.56 0.49 0.44 0.42
0.52 0.48 0.43 0.35 0.37 0.51 0.55 0.59 0.68 0.69 0.60 0.54 0.55 0.65 0.73 0.86 0.96 1.01 1.15 1.38 1.58 1.86 1.90 1.86 1.90 1.88 1.91 2.04 2.04 1.93 1.79 1.72 1.57 1.39 1.28 1.18 1.09 1.10 1.15 1.09 1.06 1.09 1.05 0.98 0.94 0.86 0.73 0.59 0.56
0.57 0.54 0.48 0.40 0.39 0.51 0.55 0.61 0.61 0.61 0.58 0.53 0.53 0.61 0.61 0.70 0.87 0.97 1.10 1.27 1.36 1.60 1.80 1.80 1.86 1.90 1.81 1.83 2.05 2.14 2.07 1.91 1.77 1.61 1.44 1.34 1.21 1.15 1.18 1.22 1.18 1.12 1.15 1.13 1.09 1.01 0.89 0.78 0.73
0.58 0.45 0.45 0.54 0.55 0.59 0.61 0.65 0.56 0.51 0.51 0.49 0.47 0.52 0.52 0.58 0.76 0.90 1.00 1.23 1.32 1.50 1.73 1.79 1.84 1.93 1.85 1.91 2.24 2.43 2.42 2.16 1.95 1.78 1.56 1.41 1.34 1.28 1.20 1.14 1.15 1.12 1.13 1.15 1.16 1.17 1.16 1.05 0.95
0.64 0.39 0.42 0.56 0.75 0.82 0.63 0.77 0.56 0.51 0.49 0.48 0.45 0.46 0.51 0.55 0.65 0.74 0.83 1.10 1.24 1.38 1.57 1.66 1.81 1.93 1.93 1.98 2.18 2.21 2.08 1.93 1.76 1.77 1.71 1.60 1.50 1.37 1.30 1.24 1.18 1.14 1.12 1.09 1.16 1.21 1.22 1.24 1.14
0.61 0.48 0.53 0.63 0.81 0.82 0.51 0.65 0.57 0.50 0.53 0.56 0.52 0.53 0.58 0.58 0.64 0.72 0.76 0.86 1.03 1.24 1.46 1.51 1.62 1.76 1.85 1.83 1.96 2.17 2.03 1.85 1.74 1.73 1.70 1.64 1.60 1.50 1.38 1.30 1.29 1.25 1.21 1.18 1.19 1.24 1.25 1.26 1.24
0.66 0.79 0.80 0.80 1.06 1.05 0.50 0.53 0.55 0.55 0.56 0.57 0.57 0.57 0.57 0.57 0.63 0.69 0.70 0.75 0.87 1.04 1.31 1.43 1.55 1.65 1.77 1.75 1.78 1.98 1.93 1.75 1.60 1.55 1.56 1.51 1.49 1.44 1.34 1.27 1.23 1.22 1.19 1.17 1.14 1.17 1.20 1.20 1.18
0.99 1.32 1.51 1.40 1.28 0.84 0.40 0.48 0.59 0.53 0.50 0.55 0.62 0.61 0.59 0.57 0.59 0.64 0.68 0.78 0.84 0.96 1.09 1.15 1.25 1.36 1.52 1.59 1.58 1.69 1.75 1.72 1.60 1.47 1.45 1.40 1.34 1.27 1.23 1.20 1.16 1.18 1.16 1.16 1.16 1.14 1.11 1.16 1.16
0.92 1.08 1.22 1.04 0.70 0.45 0.37 0.50 0.54 0.46 0.47 0.54 0.61 0.62 0.56 0.57 0.61 0.60 0.65 0.77 0.85 0.93 0.94 0.90 0.95 1.10 1.19 1.24 1.26 1.36 1.39 1.46 1.48 1.40 1.31 1.29 1.23 1.16 1.15 1.21 1.22 1.23 1.22 1.16 1.15 1.12 1.09 1.11 1.10
0.86 0.85 0.70 0.86 0.63 0.52 0.44 0.44 0.46 0.44 0.48 0.49 0.52 0.56 0.56 0.57 0.57 0.61 0.68 0.74 0.76 0.80 0.83 0.81 0.82 0.88 0.93 1.03 1.06 1.15 1.15 1.17 1.25 1.25 1.21 1.22 1.18 1.11 1.08 1.13 1.15 1.14 1.13 1.08 1.08 1.06 1.00 0.97 0.97
0.72 0.67 0.81 1.15 1.00 0.72 0.44 0.42 0.59 0.51 0.49 0.53 0.52 0.53 0.57 0.55 0.58 0.65 0.74 0.78 0.77 0.77 0.76 0.73 0.74 0.77 0.82 0.89 0.97 1.02 1.03 1.07 1.11 1.11 1.05 1.02 1.02 1.00 0.99 1.02 1.03 1.01 1.00 0.99 0.98 0.94 0.87 0.85 0.81
0.66 0.75 0.84 0.87 0.72 0.75 0.57 0.55 0.54 0.45 0.42 0.45 0.45 0.48 0.51 0.50 0.54 0.63 0.74 0.80 0.78 0.70 0.66 0.66 0.65 0.67 0.72 0.77 0.81 0.84 0.84 0.89 0.98 0.98 0.95 0.92 0.86 0.80 0.80 0.86 0.89 0.85 0.82 0.82 0.83 0.81 0.80 0.78 0.75
0.52 0.54 0.67 0.95 0.68 0.56 0.59 0.58 0.44 0.35 0.32 0.33 0.35 0.38 0.41 0.43 0.48 0.55 0.60 0.63 0.64 0.63 0.63 0.66 0.65 0.65 0.65 0.70 0.74 0.76 0.74 0.72 0.79 0.83 0.85 0.82 0.79 0.74 0.72 0.74 0.77 0.75 0.71 0.70 0.71 0.71 0.72 0.75 0.76